Showing default

YAOGAN-30 C, 42947

Orbit data source: Space-Track

YAOGAN-30 C, 42947 is a payload satellite owned by PLA SSF (CN) in LEO that was launched on Fri, 29 Sep 2017 UTC via a CHANG ZHENG 2C launch vehicle from the Xichang Space Center, China (XSC). Payload-class satellites include a variety of spacecraft equipped with specific instruments for various scientific and technological missions. These include communications satellites like Starlink; space stations such as the ISS; scientific satellites like the Hubble; Earth observation satellites from companies like Planet Labs, Umbra, and HawkEye 360; GPS; miniature CubeSats for education and research; and military/defense satellites.

Loading next visibility...
Identifier
42947, 2017-058C
Orbit
LEO
Country
Flag of CNCN / PRC
Related business
Manufacturer
SECM
Mission
Operational Defense Sigint
Bus & Motor
Unknown
Mass
~500 kg wet, ~500 kg dry
Launch date (UTC)
2017-09-29 (8 years ago)
Launch vehicle
CHANG ZHENG 2C
Launch site
Xichang Space Center, China (XSC)
Object type
Payload
Rocket body
Debris
Shape & HBR
Box + 2 Pan, 0.5 m
Radar Cross Section
0.446 m², Large (>1 m²)

Expand to show TLE details & history
Last TLE update: 14 hours ago

TLE from 14 hours ago
0 YAOGAN-30 C
1 42947U 17058C   25261.26425940  .00003527  00000-0  26608-3 0  9997
2 42947  34.9964 239.9130 0005223 333.2296  26.8142 15.01957461434878
Epoch: 2025-09-18T06:20Z
TLE epoch observation values (Epoch: 2025-09-18T06:20:32.012Z)
Latitude
-0°
Longitude
147.35126°
Altitude
556.544 km
Speed
7.587 km/s
True Right ascension
15h 59m 39s
True Declination
0° 00' 00"
Sunlit
Object was in daylight at epoch
Visualization orbit readout
Latitude
Unknown
Longitude
Unknown
Altitude
Unknown
Speed
Unknown
Apparent Right ascension
Unknown
Apparent Declination
Unknown
Sunlit
N/A
Visualization observer readout
Local Sidereal Time
13:02:42
Azimuth
Unknown
Elevation
Unknown
Doppler factor
Unknown
Orbital elements
Apogee altitude
567.708 km
Perigee altitude
560.456 km
Semi-major axis
6,942.219 km
Eccentricity
0.00052
Inclination
34.9964°
RAAN
239.913°
Arg. of periapsis
333.2296°
True anomaly
26.84121°
Mean anomaly
26.8142°
Eccentric anomaly
26.82771°
Mean motion
3.75228 °/min
Orbital period
95.94 mins
BSTAR
0.00026608
Loading maneuver chart data...
Computing Atmospheric mass density...
Loading historical data...
Loading historical data...
Loading historical data...
Loading historical data...
Loading historical data...
Loading historical data...
Loading historical data...
Other satellites on launch #58 in the year 2017 (2017-09-29 UTC)

Documentation

Showing up to 5 results
|